Location: Cincinnati Observatory Center
(39.1389°N, 84.4225°W)
Time: 17:59:32
(UTC-04:00)

Amateur Radio Satellites - All Passes

Search period start: 25 August 2016 17:29
Search period end: 26 August 2016 17:29
Location: Cincinnati Observatory Center, 39.1389°N, 84.4225°W

Satellite Date Start Highest point End Downlink Frequencies (MHz)
Time Altitude Azimuth
ITUPSAT 1 25 Aug 17:30:06 17:33:08 17° 296° (WNW) 17:36:11 437.325
KKS-1 25 Aug 17:31:15 17:35:43 67° 102° (ESE) 17:40:07 437.445
ISS 25 Aug 17:31:46 17:35:01 63° 221° (SW) 17:38:14 145.825
Cubesat XI-IV 25 Aug 17:38:33 17:40:51 13° 60° (ENE) 17:43:09 437.490
CUTE-I 25 Aug 17:50:04 17:53:22 17° 62° (ENE) 17:56:40 437.470
HORYU 2 25 Aug 17:50:20 17:54:49 82° 74° (ENE) 17:59:18 437.375
LilacSat-2 25 Aug 17:57:04 17:58:24 12° 66° (ENE) 17:59:44 437.200
NOAA 15 25 Aug 17:58:24 18:02:38 25° 66° (ENE) 18:06:53 137.62
Cosmos 2491 25 Aug 17:58:54 18:04:41 20° 79° (E) 18:10:27 435.465 / 435.565
NOAA 18 25 Aug 18:08:03 18:12:22 24° 64° (ENE) 18:16:41 137.9125
Cosmos 2504 25 Aug 18:12:05 18:15:15 13° 62° (ENE) 18:18:24 435.465 / 435.565
STARS 25 Aug 18:14:02 18:18:27 85° 280° (W) 18:22:49 437.465
YUBILEINY 25 Aug 18:17:20 18:25:53 53° 77° (ENE) 18:34:19 435.215
CUBESAT XI-V 25 Aug 18:31:59 18:36:32 48° 99° (E) 18:41:04 437.345
GOMX 1 25 Aug 18:37:19 18:41:58 40° 70° (ENE) 18:46:54 467.674
BRITE-PL 25 Aug 18:48:41 18:53:22 73° 259° (W) 18:58:30 437.365/2234.400
DOVE 4 25 Aug 18:56:40 19:01:04 30° 68° (ENE) 19:05:36 437.250
MOZHAYETS 4 25 Aug 18:57:53 18:59:51 13° 297° (WNW) 19:01:49
KKS-1 25 Aug 19:10:03 19:11:41 12° 298° (WNW) 19:13:19 437.445
Cubesat XI-IV 25 Aug 19:14:49 19:20:11 83° 258° (WSW) 19:25:33 437.490
BEESAT 2 25 Aug 19:24:34 19:26:47 14° 44° (NE) 19:29:01 435.950
CUTE-I 25 Aug 19:27:35 19:32:52 63° 258° (WSW) 19:38:10 437.470
LilacSat-2 25 Aug 19:28:31 19:32:15 48° 261° (W) 19:36:00 437.200
NOAA 15 25 Aug 19:37:18 19:42:10 39° 262° (W) 19:47:05 137.62
HO-68 25 Aug 19:43:17 19:49:34 34° 63° (ENE) 19:55:51 435.675
CANX-2 25 Aug 19:45:40 19:48:35 18° 67° (ENE) 19:51:29 2200.000
BEESAT 3 25 Aug 19:46:33 19:50:18 39° 54° (NE) 19:54:02 437.485
NOAA 18 25 Aug 19:47:23 19:52:42 46° 260° (W) 19:58:01 137.9125
Cosmos 2491 25 Aug 19:51:42 20:00:25 79° 278° (W) 20:09:13 435.465 / 435.565
CUTE 1.7 + AOD 2 25 Aug 19:52:13 19:55:09 19° 68° (ENE) 19:58:07 437.475
CINEMA 3 25 Aug 19:54:58 19:59:23 32° 70° (ENE) 20:03:48 145.822/145.860
Cosmos 2504 25 Aug 20:02:32 20:09:51 85° 83° (E) 20:17:01 435.465 / 435.565
AAUSAT CUBESAT 2 25 Aug 20:09:28 20:10:16 10° 64° (ENE) 20:11:05 437.432
CUBESAT XI-V 25 Aug 20:10:28 20:13:30 17° 295° (WNW) 20:16:33 437.345
COMPASS 1 25 Aug 20:13:21 20:15:47 15° 66° (ENE) 20:18:13 437.405
YUBILEINY 25 Aug 20:14:48 20:22:13 32° 276° (W) 20:29:35 435.215
GOMX 1 25 Aug 20:16:17 20:20:11 23° 268° (W) 20:24:17 467.674
CUBEBUG 2 25 Aug 20:29:58 20:33:25 21° 67° (ENE) 20:36:51 437.445
STRAND 1 25 Aug 20:31:37 20:36:28 42° 99° (E) 20:41:17 437.568
UWE-3 25 Aug 20:33:39 20:36:12 15° 65° (ENE) 20:38:43 435.000/436.395/437.385
DOVE 4 25 Aug 20:34:04 20:38:36 32° 265° (W) 20:43:19 437.250
ZACube-1 25 Aug 20:53:33 20:56:07 15° 66° (ENE) 20:58:38 437.345
AIST 1 25 Aug 20:59:56 21:03:40 26° 75° (ENE) 21:07:20
BEESAT 2 25 Aug 21:01:02 21:04:59 59° 242° (WSW) 21:08:55 435.950
SEEDS 25 Aug 21:03:09 21:07:19 86° 77° (ENE) 21:11:30 437.485
AIST 2 25 Aug 21:17:05 21:18:03 11° 41° (NE) 21:19:02 435.215
CANX-2 25 Aug 21:20:19 21:24:09 35° 263° (W) 21:28:02 2200.000
BEESAT 3 25 Aug 21:25:09 21:27:38 16° 250° (WSW) 21:30:07 437.485
CUTE 1.7 + AOD 2 25 Aug 21:26:55 21:30:45 34° 263° (W) 21:34:35 437.475
HO-68 25 Aug 21:30:13 21:37:03 46° 260° (W) 21:43:55 435.675
CINEMA 3 25 Aug 21:32:10 21:36:27 28° 265° (W) 21:40:45 145.822/145.860
AAUSAT CUBESAT 2 25 Aug 21:41:08 21:45:11 63° 259° (W) 21:49:16 437.432
PCSat 25 Aug 21:41:35 21:46:18 29° 52° (NE) 21:50:59 145.827
COMPASS 1 25 Aug 21:47:05 21:50:59 41° 262° (W) 21:54:54 437.405
Cosmos 2491 25 Aug 21:54:11 21:58:47 15° 299° (WNW) 22:03:26 435.465 / 435.565
Cosmos 2504 25 Aug 21:58:41 22:02:05 14° 282° (WNW) 22:05:28 435.465 / 435.565
HUMSAT D 25 Aug 22:00:08 22:02:33 15° 66° (ENE) 22:04:59 437.325/437.525
Oscar 11 25 Aug 22:03:06 22:07:25 86° 77° (ENE) 22:11:44 145.826/435.025
DELFI C3 25 Aug 22:04:46 22:08:18 33° 72° (ENE) 22:11:51 145.870
CUBEBUG 2 25 Aug 22:05:22 22:09:46 39° 262° (W) 22:14:07 437.445
FUNcube-1 25 Aug 22:07:15 22:11:45 89° 88° (E) 22:16:10 145.935
UWE-3 25 Aug 22:07:42 22:12:13 54° 260° (W) 22:16:40 435.000/436.395/437.385
STRAND 1 25 Aug 22:11:28 22:15:20 22° 295° (WNW) 22:19:12 437.568
ZACube-1 25 Aug 22:27:37 22:31:59 50° 260° (W) 22:36:18 437.345
PRISM 25 Aug 22:28:01 22:32:13 83° 105° (ESE) 22:36:24 437.425
AUBIESAT-1 25 Aug 22:29:19 22:32:08 16° 59° (ENE) 22:34:56 437.475
M-CUBED/EXP-1 PRIME 25 Aug 22:32:13 22:35:40 21° 61° (ENE) 22:39:10 437.505
GONETS M04 25 Aug 22:33:51 22:38:51 16° 61° (ENE) 22:43:49
AIST 1 25 Aug 22:37:35 22:41:07 24° 271° (W) 22:44:39
AIST 2 25 Aug 22:53:00 22:57:12 83° 56° (NE) 23:01:23 435.215
ANTELSAT 25 Aug 23:13:30 23:17:00 24° 95° (E) 23:20:28 437.575/2403.000
Cosmos 2499 25 Aug 23:15:03 23:19:38 18° 66° (ENE) 23:24:11 435.465 / 435.565
CUBEBUG 1 25 Aug 23:17:50 23:19:45 13° 63° (ENE) 23:21:40 437.445
PCSat 25 Aug 23:24:45 23:29:46 39° 249° (WSW) 23:34:45 145.827
HUMSAT D 25 Aug 23:33:51 23:37:49 42° 261° (W) 23:41:47 437.325/437.525
50 SAT 25 Aug 23:34:43 23:36:06 12° 66° (ENE) 23:37:28 437.505
DX 1 25 Aug 23:35:31 23:36:44 11° 62° (ENE) 23:37:57 434.975-435.025
ESTCUBE 1 25 Aug 23:38:48 23:42:47 33° 70° (ENE) 23:46:47 437.505/2401.250
DELFI C3 25 Aug 23:40:47 23:43:15 16° 267° (W) 23:45:42 145.870
TIGRISAT 25 Aug 23:44:35 23:48:47 52° 100° (E) 23:52:55 435.000
SPROUT 25 Aug 23:47:22 23:47:46 10° 62° (ENE) 23:48:11 437.525
AISAT 25 Aug 23:56:23 00:00:13 29° 69° (ENE) 00:04:04 437.250
AUBIESAT-1 26 Aug 00:01:33 00:06:04 58° 254° (WSW) 00:10:40 437.475
M-CUBED/EXP-1 PRIME 26 Aug 00:05:25 00:09:50 44° 257° (WSW) 00:14:21 437.505
UNISAT 6 26 Aug 00:12:27 00:16:44 68° 284° (WNW) 00:20:57 437.425
QB50P2 26 Aug 00:17:14 00:20:11 18° 94° (E) 00:23:06 145.880/145.840
UKube-1 26 Aug 00:17:36 00:21:06 25° 68° (ENE) 00:24:37 .
DUCHIFAT 1 26 Aug 00:18:10 00:20:38 15° 93° (E) 00:23:04 145.980
POLYITAN 1 26 Aug 00:19:45 00:22:43 18° 94° (E) 00:25:39 437.675
GONETS M04 26 Aug 00:28:15 00:37:10 81° 83° (E) 00:46:01
NANOSAT C BR1 26 Aug 00:30:09 00:33:30 22° 95° (E) 00:36:48 145.865
CUSAT 1 26 Aug 00:30:52 00:33:30 46° 95° (E) 00:36:37 437.405
RS-15 26 Aug 00:37:44 00:44:10 17° 96° (E) 00:50:43 29.354- 29.394
VELOX 1 26 Aug 00:43:16 00:47:42 90° 309° (NW) 00:52:10 145.980
SO-50 26 Aug 00:46:23 00:51:07 52° 117° (ESE) 00:55:48 436.795
O/OREOS (USA 219) 26 Aug 00:48:26 00:52:50 44° 64° (ENE) 00:57:14 437.305
ANTELSAT 26 Aug 00:50:05 00:53:40 26° 291° (WNW) 00:57:13 437.575/2403.000
CUBEBUG 1 26 Aug 00:51:10 00:55:29 60° 259° (W) 00:59:52 437.445
50 SAT 26 Aug 01:05:55 01:09:17 39° 261° (W) 01:12:41 437.505
Cosmos 2499 26 Aug 01:06:26 01:13:28 73° 266° (W) 01:20:34 435.465 / 435.565
DANDE 26 Aug 01:07:53 01:10:12 28° 94° (E) 01:12:33 436.750
DX 1 26 Aug 01:07:58 01:12:18 69° 258° (WSW) 01:16:42 434.975-435.025
QB50P1 26 Aug 01:12:14 01:16:28 77° 103° (ESE) 01:20:39 145.935-145.965
ESTCUBE 1 26 Aug 01:16:10 01:19:36 22° 266° (W) 01:23:04 437.505/2401.250
JAS-2 26 Aug 01:18:11 01:24:42 46° 99° (E) 01:31:50 435.910
SPROUT 26 Aug 01:18:47 01:23:05 73° 258° (WSW) 01:27:25 437.525
BUGSAT 1 26 Aug 01:21:19 01:25:05 33° 98° (E) 01:28:46 437.445
POPSAT HIP 1 26 Aug 01:22:02 01:26:17 83° 282° (WNW) 01:30:28 437.405
TIGRISAT 26 Aug 01:22:58 01:25:00 13° 296° (WNW) 01:27:02 435.000
AISAT 26 Aug 01:33:01 01:36:38 24° 265° (W) 01:40:18 437.250
TISAT 1 26 Aug 01:45:46 01:49:50 46° 73° (ENE) 01:53:55 437.305
QB50P2 26 Aug 01:52:14 01:56:04 34° 289° (WNW) 01:59:52 145.880/145.840
DUCHIFAT 1 26 Aug 01:52:33 01:56:30 40° 288° (WNW) 02:00:25 145.980
UKube-1 26 Aug 01:53:20 01:57:01 27° 263° (W) 02:00:44 .
POLYITAN 1 26 Aug 01:54:47 01:58:36 33° 289° (WNW) 02:02:21 437.675
SWISSCUBE 26 Aug 01:55:40 01:58:09 14° 63° (ENE) 02:00:39 437.505
NANOSAT C BR1 26 Aug 02:05:37 02:09:11 27° 290° (WNW) 02:12:45 145.865
BEESAT 26 Aug 02:12:07 02:15:24 19° 65° (ENE) 02:18:42 436.000
GONETS M04 26 Aug 02:27:03 02:32:50 20° 281° (WNW) 02:38:37
SO-50 26 Aug 02:28:09 02:31:53 21° 314° (NW) 02:35:35 436.795
O/OREOS (USA 219) 26 Aug 02:28:55 02:31:50 17° 260° (W) 02:34:46 437.305
Oscar 19 26 Aug 02:30:34 02:35:18 34° 97° (E) 02:40:01 437.125/150
RS-15 26 Aug 02:42:58 02:54:24 78° 117° (ESE) 03:06:30 29.354- 29.394
ITUPSAT 1 26 Aug 02:56:35 03:01:12 51° 72° (ENE) 03:05:49 437.325
BUGSAT 1 26 Aug 02:57:17 03:00:11 19° 293° (WNW) 03:03:04 437.445
PHONESAT 2.4 26 Aug 02:58:02 03:00:19 20° 151° (SSE) 03:02:36 2401.200-2431.200
JAS-2 26 Aug 03:03:38 03:09:31 34° 293° (WNW) 03:15:57 435.910
TISAT 1 26 Aug 03:23:30 03:25:42 14° 268° (W) 03:27:55 437.305
Gurwin Techsat 1B 26 Aug 03:24:17 03:29:29 51° 100° (E) 03:34:38 435.225
SWISSCUBE 26 Aug 03:30:44 03:35:25 61° 259° (WSW) 03:40:08 437.505
ITAMSAT 1 26 Aug 03:40:52 03:44:44 21° 94° (E) 03:48:37 435.822/435.867
BEESAT 26 Aug 03:48:18 03:52:50 44° 260° (W) 03:57:24 436.000
Oscar 19 26 Aug 04:10:07 04:14:28 28° 293° (WNW) 04:18:49 437.125/150
MOZHAYETS 4 26 Aug 04:19:15 04:23:41 52° 73° (ENE) 04:28:07
KKS-1 26 Aug 04:27:54 04:32:15 52° 73° (ENE) 04:36:38 437.445
PHONESAT 2.4 26 Aug 04:33:24 04:36:25 82° 163° (SSE) 04:39:24 2401.200-2431.200
ITUPSAT 1 26 Aug 04:36:30 04:39:18 15° 268° (W) 04:42:06 437.325
RS-15 26 Aug 04:57:40 05:08:10 36° 322° (NW) 05:19:09 29.354- 29.394
AO-7 26 Aug 05:03:19 05:11:27 55° 103° (ESE) 05:19:29 29.400- 29.500
Gurwin Techsat 1B 26 Aug 05:05:15 05:09:01 20° 296° (WNW) 05:12:45 435.225
STARS 26 Aug 05:09:06 05:13:31 73° 75° (ENE) 05:17:58 437.465
ITAMSAT 1 26 Aug 05:19:29 05:24:22 44° 290° (WNW) 05:29:15 435.822/435.867
CUBESAT XI-V 26 Aug 05:34:08 05:38:25 40° 72° (ENE) 05:42:44 437.345
HORYU 2 26 Aug 05:43:35 05:46:22 16° 93° (E) 05:49:08 437.375
MOZHAYETS 4 26 Aug 05:58:47 06:01:08 14° 269° (W) 06:03:29
Cosmos 2491 26 Aug 06:03:32 06:12:05 50° 77° (ENE) 06:20:34 435.465 / 435.565
KKS-1 26 Aug 06:06:53 06:09:06 14° 268° (W) 06:11:21 437.445
PHONESAT 2.4 26 Aug 06:09:52 06:12:50 64° 2° (N) 06:15:49 2401.200-2431.200
AO-85 26 Aug 06:24:19 06:29:29 51° 116° (ESE) 06:34:25 145.980
GOMX 1 26 Aug 06:41:50 06:44:47 15° 89° (E) 06:47:40 467.674
Cosmos 2504 26 Aug 06:51:16 06:54:19 12° 77° (ENE) 06:57:19 435.465 / 435.565
BRITE-PL 26 Aug 06:54:12 06:59:40 45° 97° (E) 07:05:01 437.365/2234.400
AO-7 26 Aug 06:56:39 07:03:49 34° 301° (WNW) 07:10:59 29.400- 29.500
LilacSat-2 26 Aug 07:03:44 07:06:21 18° 94° (E) 07:08:57 437.200
CUBESAT XI-V 26 Aug 07:12:45 07:15:56 18° 267° (W) 07:19:09 437.345
YUBILEINY 26 Aug 07:16:16 07:24:55 63° 91° (E) 07:33:35 435.215
RS-15 26 Aug 07:17:47 07:25:55 20° 357° (N) 07:34:11 29.354- 29.394
HORYU 2 26 Aug 07:18:57 07:23:06 42° 288° (WNW) 07:27:15 437.375
Cubesat XI-IV 26 Aug 07:33:21 07:38:24 43° 99° (E) 07:43:26 437.490
CUTE-I 26 Aug 07:45:42 07:50:56 57° 101° (E) 07:56:09 437.470
PHONESAT 2.4 26 Aug 07:46:15 07:49:13 58° 198° (SSW) 07:52:10 2401.200-2431.200
STRAND 1 26 Aug 07:46:17 07:51:15 55° 72° (ENE) 07:56:13 437.568
NOAA 15 26 Aug 07:52:58 07:58:19 86° 104° (ESE) 08:03:38 137.62
Cosmos 2491 26 Aug 08:00:55 08:08:32 34° 275° (W) 08:16:10 435.465 / 435.565
AO-85 26 Aug 08:05:57 08:10:12 24° 312° (NW) 08:14:15 145.980
NOAA 18 26 Aug 08:10:17 08:15:47 83° 105° (ESE) 08:21:14 137.9125
GOMX 1 26 Aug 08:17:56 08:23:21 66° 286° (WNW) 08:28:29 467.674
BRITE-PL 26 Aug 08:33:13 08:37:48 26° 294° (WNW) 08:42:20 437.365/2234.400
DOVE 4 26 Aug 08:33:48 08:38:56 84° 102° (ESE) 08:43:44 437.250
LilacSat-2 26 Aug 08:37:26 08:40:39 27° 289° (WNW) 08:43:52 437.200
Cosmos 2504 26 Aug 08:37:53 08:46:26 76° 94° (E) 08:54:24 435.465 / 435.565
SEEDS 26 Aug 08:49:20 08:51:50 15° 92° (E) 08:54:20 437.485
HO-68 26 Aug 08:58:56 09:05:31 38° 98° (E) 09:12:03 435.675
CANX-2 26 Aug 09:06:00 09:10:00 40° 98° (E) 09:13:59 2200.000
CUTE 1.7 + AOD 2 26 Aug 09:12:27 09:16:28 41° 98° (E) 09:20:28 437.475
Cubesat XI-IV 26 Aug 09:14:03 09:18:11 24° 295° (WNW) 09:22:19 437.490
YUBILEINY 26 Aug 09:15:02 09:22:16 28° 291° (WNW) 09:29:34 435.215
PRISM 26 Aug 09:16:08 09:20:04 49° 73° (ENE) 09:24:02 437.425
SO-50 26 Aug 09:19:10 09:23:22 34° 51° (NE) 09:27:28 436.795
PHONESAT 2.4 26 Aug 09:23:45 09:25:10 13° 213° (SSW) 09:26:35 2401.200-2431.200
AAUSAT CUBESAT 2 26 Aug 09:25:01 09:28:12 21° 95° (E) 09:31:22 437.432
CUTE-I 26 Aug 09:26:59 09:30:30 18° 297° (WNW) 09:34:01 437.470
STRAND 1 26 Aug 09:27:34 09:30:44 16° 268° (W) 09:33:54 437.568
CINEMA 3 26 Aug 09:27:37 09:32:12 84° 103° (ESE) 09:36:32 145.822/145.860
AIST 1 26 Aug 09:29:04 09:31:45 16° 86° (E) 09:34:26
COMPASS 1 26 Aug 09:30:52 09:34:37 31° 97° (E) 09:38:20 437.405
RS-15 26 Aug 09:33:46 09:44:16 31° 32° (NNE) 09:54:40 29.354- 29.394
NOAA 15 26 Aug 09:35:11 09:37:19 12° 301° (WNW) 09:39:28 137.62
Oscar 11 26 Aug 09:52:29 09:55:18 17° 93° (E) 09:58:07 145.826/435.025
NOAA 18 26 Aug 09:53:08 09:55:41 14° 301° (WNW) 09:58:15 137.9125
CUBEBUG 2 26 Aug 09:57:20 10:01:25 45° 99° (E) 10:05:24 437.445
FUNcube-1 26 Aug 09:57:36 10:00:20 17° 93° (E) 10:03:01 145.935
UWE-3 26 Aug 09:58:51 10:02:35 30° 97° (E) 10:06:14 435.000/436.395/437.385
ISS 26 Aug 10:10:26 10:13:42 73° 139° (SE) 10:16:59 145.825
ANTELSAT 26 Aug 10:11:18 10:14:46 21° 67° (ENE) 10:18:11 437.575/2403.000
DOVE 4 26 Aug 10:14:06 10:15:46 12° 300° (WNW) 10:17:25 437.250
ZACube-1 26 Aug 10:17:19 10:21:02 31° 97° (E) 10:24:42 437.345
SEEDS 26 Aug 10:23:45 10:27:42 40° 287° (WNW) 10:31:38 437.485
Cosmos 2504 26 Aug 10:34:26 10:40:29 21° 292° (WNW) 10:46:19 435.465 / 435.565
TIGRISAT 26 Aug 10:41:42 10:46:03 41° 72° (ENE) 10:50:19 435.000
CANX-2 26 Aug 10:42:51 10:45:31 17° 294° (WNW) 10:48:11 2200.000
HO-68 26 Aug 10:46:38 10:53:12 40° 295° (WNW) 10:59:43 435.675
CUTE 1.7 + AOD 2 26 Aug 10:49:20 10:51:58 16° 294° (WNW) 10:54:35 437.475
BEESAT 2 26 Aug 10:52:00 10:55:25 29° 114° (ESE) 10:58:53 435.950
PRISM 26 Aug 10:54:01 10:55:38 12° 268° (W) 10:57:17 437.425
SO-50 26 Aug 10:59:57 11:03:41 25° 248° (WSW) 11:07:20 436.795
AAUSAT CUBESAT 2 26 Aug 11:00:04 11:03:40 29° 290° (WNW) 11:07:17 437.432
CUSAT 1 26 Aug 11:01:05 11:07:11 47° 77° (ENE) 11:14:27 437.405
AIST 1 26 Aug 11:04:57 11:08:58 38° 282° (WNW) 11:13:04
COMPASS 1 26 Aug 11:06:53 11:09:57 20° 292° (WNW) 11:13:00 437.405
UNISAT 6 26 Aug 11:09:26 11:14:05 89° 77° (ENE) 11:18:40 437.425
QB50P2 26 Aug 11:09:53 11:11:53 13° 64° (ENE) 11:13:53 145.880/145.840
DUCHIFAT 1 26 Aug 11:10:42 11:11:43 11° 63° (ENE) 11:12:44 145.980
POLYITAN 1 26 Aug 11:12:20 11:14:24 13° 64° (ENE) 11:16:29 437.675
BEESAT 3 26 Aug 11:12:58 11:16:52 76° 303° (WNW) 11:20:49 437.485
DELFI C3 26 Aug 11:17:29 11:21:29 67° 101° (ESE) 11:25:27 145.870
HUMSAT D 26 Aug 11:18:19 11:21:55 30° 97° (E) 11:25:31 437.325/437.525
NANOSAT C BR1 26 Aug 11:21:57 11:24:32 16° 66° (ENE) 11:27:07 145.865
Oscar 11 26 Aug 11:27:34 11:31:34 38° 288° (WNW) 11:35:34 145.826/435.025
FUNcube-1 26 Aug 11:32:54 11:36:41 34° 288° (WNW) 11:40:25 145.935
JAS-2 26 Aug 11:33:36 11:35:57 13° 58° (ENE) 11:38:20 435.910
GONETS M04 26 Aug 11:35:09 11:40:29 18° 78° (ENE) 11:45:49
CUBEBUG 2 26 Aug 11:35:20 11:37:37 14° 295° (WNW) 11:39:53 437.445
UWE-3 26 Aug 11:35:45 11:38:51 20° 292° (WNW) 11:41:53 435.000/436.395/437.385
DANDE 26 Aug 11:42:13 11:47:10 38° 78° (ENE) 11:53:28 436.750
RS-15 26 Aug 11:46:25 11:58:53 84° 58° (ENE) 12:11:05 29.354- 29.394
ANTELSAT 26 Aug 11:46:58 11:51:14 36° 262° (W) 11:55:27 437.575/2403.000
M-CUBED/EXP-1 PRIME 26 Aug 11:47:52 11:49:57 14° 95° (E) 11:51:57 437.505
ISS 26 Aug 11:48:05 11:50:28 18° 337° (NNW) 11:52:52 145.825
Cosmos 2499 26 Aug 11:51:51 11:56:25 16° 80° (E) 12:00:48 435.465 / 435.565
ZACube-1 26 Aug 11:54:05 11:57:07 20° 292° (WNW) 12:00:06 437.345
QB50P1 26 Aug 12:03:14 12:07:21 48° 73° (ENE) 12:11:28 145.935-145.965
BUGSAT 1 26 Aug 12:10:11 12:13:25 22° 68° (ENE) 12:16:40 437.445
POPSAT HIP 1 26 Aug 12:12:57 12:17:11 61° 74° (ENE) 12:21:25 437.405
TIGRISAT 26 Aug 12:19:43 12:22:52 18° 267° (W) 12:26:00 435.000
PCSat 26 Aug 12:22:15 12:26:57 31° 109° (ESE) 12:31:41 145.827
BEESAT 2 26 Aug 12:30:00 12:33:13 24° 310° (NW) 12:36:29 435.950
VELOX 1 26 Aug 12:35:25 12:38:33 19° 94° (E) 12:41:40 145.980
50 SAT 26 Aug 12:35:55 12:38:14 16° 94° (E) 12:40:33 437.505
CUBEBUG 1 26 Aug 12:41:13 12:44:58 27° 96° (E) 12:48:42 437.445
DUCHIFAT 1 26 Aug 12:42:36 12:46:49 67° 258° (WSW) 12:51:05 145.980
QB50P2 26 Aug 12:43:01 12:47:12 54° 260° (W) 12:51:25 145.880/145.840
CUSAT 1 26 Aug 12:43:27 12:49:03 32° 269° (W) 12:55:31 437.405
POLYITAN 1 26 Aug 12:45:33 12:49:44 53° 260° (W) 12:53:57 437.675
AIST 2 26 Aug 12:50:11 12:53:20 22° 112° (ESE) 12:56:31 435.215
HUMSAT D 26 Aug 12:54:22 12:57:21 20° 292° (WNW) 13:00:20 437.325/437.525
NANOSAT C BR1 26 Aug 12:55:51 12:59:54 43° 261° (W) 13:03:59 145.865
DX 1 26 Aug 12:57:54 13:01:18 22° 95° (E) 13:04:39 434.975-435.025
SPROUT 26 Aug 13:06:36 13:09:48 20° 94° (E) 13:12:57 437.525
ESTCUBE 1 26 Aug 13:08:19 13:12:52 84° 100° (E) 13:17:25 437.505/2401.250
JAS-2 26 Aug 13:15:06 13:20:15 75° 258° (WSW) 13:25:42 435.910
JUGNU 26 Aug 13:15:53 13:16:07 10° 174° (S) 13:16:20 437.505
AUBIESAT-1 26 Aug 13:16:24 13:20:27 60° 290° (WNW) 13:24:09 437.475
M-CUBED/EXP-1 PRIME 26 Aug 13:20:47 13:24:46 43° 293° (WNW) 13:28:26 437.505
AISAT 26 Aug 13:23:12 13:27:39 68° 101° (E) 13:32:04 437.250
DANDE 26 Aug 13:25:07 13:29:51 30° 266° (W) 13:35:42 436.750
GONETS M04 26 Aug 13:27:17 13:36:03 86° 278° (W) 13:44:55
Cosmos 2499 26 Aug 13:40:15 13:48:35 86° 277° (W) 13:56:17 435.465 / 435.565
UKube-1 26 Aug 13:40:43 13:44:57 50° 100° (E) 13:49:09 .
QB50P1 26 Aug 13:41:13 13:43:21 14° 268° (W) 13:45:30 145.935-145.965
BUGSAT 1 26 Aug 13:44:50 13:48:35 30° 263° (W) 13:52:22 437.445
Oscar 19 26 Aug 13:46:11 13:51:04 45° 71° (ENE) 13:55:59 437.125/150
POPSAT HIP 1 26 Aug 13:52:28 13:53:19 10° 270° (W) 13:54:11 437.405
RS-15 26 Aug 14:00:38 14:09:55 26° 259° (W) 14:19:06 29.354- 29.394
PCSat 26 Aug 14:05:17 14:10:14 36° 306° (NW) 14:15:14 145.827
50 SAT 26 Aug 14:08:41 14:11:50 28° 289° (WNW) 14:15:00 437.505
VELOX 1 26 Aug 14:11:00 14:15:08 38° 289° (WNW) 14:19:14 145.980
AO-7 26 Aug 14:13:36 14:17:43 15° 48° (NE) 14:21:50 29.400- 29.500
CUBEBUG 1 26 Aug 14:17:28 14:21:09 26° 291° (WNW) 14:24:49 437.445
AIST 2 26 Aug 14:27:55 14:31:37 32° 308° (NW) 14:35:23 435.215
DX 1 26 Aug 14:33:37 14:37:30 31° 290° (WNW) 14:41:22 434.975-435.025
SPROUT 26 Aug 14:41:58 14:45:47 32° 289° (WNW) 14:49:33 437.525
Gurwin Techsat 1B 26 Aug 14:44:09 14:49:27 74° 74° (ENE) 14:54:46 435.225
ITAMSAT 1 26 Aug 14:57:36 15:02:03 30° 67° (ENE) 15:06:31 435.822/435.867
AO-85 26 Aug 14:58:00 15:01:42 27° 49° (NE) 15:05:11 145.980
O/OREOS (USA 219) 26 Aug 14:59:21 15:03:46 64° 109° (ESE) 15:08:15 437.305
ITUPSAT 1 26 Aug 14:59:40 15:02:13 14° 92° (E) 15:04:45 437.325
AISAT 26 Aug 15:01:57 15:03:31 12° 298° (WNW) 15:05:06 437.250
JUGNU 26 Aug 15:03:15 15:04:10 10° 185° (S) 15:05:05 437.505
ISS 26 Aug 15:03:43 15:05:37 14° 18° (NNE) 15:07:31 145.825
TISAT 1 26 Aug 15:06:03 15:10:16 82° 284° (WNW) 15:14:26 437.305
UKube-1 26 Aug 15:18:13 15:20:33 14° 296° (WNW) 15:22:53 .
Oscar 19 26 Aug 15:26:48 15:30:35 20° 267° (W) 15:34:23 437.125/150
GONETS M04 26 Aug 15:28:59 15:34:14 17° 298° (WNW) 15:39:33
SWISSCUBE 26 Aug 15:32:04 15:36:27 36° 98° (E) 15:40:49 437.505
Cosmos 2499 26 Aug 15:38:15 15:42:39 15° 295° (WNW) 15:46:57 435.465 / 435.565
BEESAT 26 Aug 15:49:13 15:53:50 49° 100° (E) 15:58:26 436.000
AO-7 26 Aug 16:00:42 16:08:56 67° 68° (ENE) 16:17:12 29.400- 29.500
MOZHAYETS 4 26 Aug 16:16:58 16:19:12 13° 91° (E) 16:21:24
KKS-1 26 Aug 16:22:41 16:23:41 11° 90° (E) 16:24:41 437.445
Gurwin Techsat 1B 26 Aug 16:27:38 16:29:54 13° 270° (W) 16:32:11 435.225
ITUPSAT 1 26 Aug 16:35:42 16:40:22 56° 287° (WNW) 16:45:01 437.325
ITAMSAT 1 26 Aug 16:36:50 16:41:25 31° 263° (W) 16:46:01 435.822/435.867
SRMSAT 26 Aug 16:36:58 16:38:25 11° 180° (S) 16:39:52 437.500
AO-85 26 Aug 16:38:37 16:42:00 25° 249° (WSW) 16:45:15 145.980
ISS 26 Aug 16:39:21 16:42:37 63° 36° (NE) 16:45:51 145.825
HORYU 2 26 Aug 16:41:11 16:43:38 15° 64° (ENE) 16:46:04 437.375
O/OREOS (USA 219) 26 Aug 16:41:28 16:43:38 13° 306° (NW) 16:45:50 437.305
STARS 26 Aug 17:01:13 17:03:32 14° 92° (E) 17:05:51 437.465
SWISSCUBE 26 Aug 17:10:19 17:14:01 23° 294° (WNW) 17:17:43 437.505
